Weather History for Columbus, OH

Change the Weather History Date:

Friday, October 25, 2013

  Actual Average Record
Temperature  
Mean Temperature 40 °F 52 °F  
Max Temperature 49 °F 62 °F 81 °F (1963)
Min Temperature 30 °F 42 °F 23 °F (1960)
Degree Days  
Heating Degree Days 25 13  
Month to date heating degree days 209 240  
Since 1 July heating degree days 262 309  
Cooling Degree Days 0 0  
Month to date cooling degree days 42 13  
Year to date cooling degree days 1179 1024  
Moisture  
Dew Point 27 °F    
Average Humidity 64    
Maximum Humidity 85    
Minimum Humidity 42    
Precipitation  
Precipitation 0.00 in 0.07 in 1.66 in (1939)
Month to date precipitation 4.93 2.08  
Year to date precipitation 34.09 32.61  
Snow  
Snow 0.00 in 0.00 in 1.30 in (1962)
Month to date snowfall T 0.1  
Since 1 July snowfall T 0.1  
Since 1 September snowfall T 0.1  
Snow Depth 0.00 in    
Sea Level Pressure  
Sea Level Pressure 30.33 in    
Wind  
Wind Speed 7 mph (West)    
Max Wind Speed 16 mph    
Max Gust Speed 20 mph    
Visibility 10 miles    
Events      
T = Trace of Precipitation, MM = Missing Value Source: NWS Daily Summary

Daily Weather History Graph

Daily Weather History Graph

Search for Another Location

Airport:

Trip Planner

Search our weather history database for the weather conditions in past years. The results will help you decide how hot, cold, wet, or windy it might be!

Date:

Astronomy

Oct. 25, 2013 Rise Set
Actual Time 7:52 AM EDT 6:37 PM EDT
Civil Twilight 7:25 AM EDT 7:05 PM EDT
Nautical Twilight 6:53 AM EDT 7:36 PM EDT
Astronomical Twilight 6:22 AM EDT 8:08 PM EDT
Moon 11:56 PM EDT (10/25) 1:32 PM EDT (10/25)
Length of Visible Light 11h 39m
Length of Day
10h 44m
Waning Gibbous, 62% of the Moon is Illuminated
Oct 25
Waning Gibbous
Oct 26
Last Quarter
Nov 3
New
Nov 10
First Quarter
Nov 17
Full

Hourly Weather History & Observations

Time (EDT) Temp. Windchill Dew Point Humidity Pressure Visibility Wind Dir Wind Speed Gust Speed Precip Events Conditions
12:51 AM 37.0 °F 30.4 °F 30.0 °F 76% 30.25 in 10.0 mi NW 9.2 mph - N/A   Mostly Cloudy
1:51 AM 35.1 °F 30.1 °F 28.9 °F 78% 30.25 in 10.0 mi West 5.8 mph - N/A   Scattered Clouds
2:51 AM 34.0 °F 31.0 °F 28.0 °F 79% 30.27 in 10.0 mi WNW 3.5 mph - N/A   Partly Cloudy
3:51 AM 34.0 °F 29.8 °F 28.0 °F 79% 30.28 in 10.0 mi West 4.6 mph - N/A   Clear
4:51 AM 33.1 °F 30.0 °F 27.0 °F 78% 30.30 in 10.0 mi West 3.5 mph - N/A   Clear
5:51 AM 30.9 °F 26.2 °F 26.1 °F 82% 30.32 in 10.0 mi West 4.6 mph - N/A   Clear
6:51 AM 30.9 °F 26.2 °F 25.0 °F 79% 30.35 in 10.0 mi West 4.6 mph - N/A   Clear
7:51 AM 30.9 °F 26.2 °F 24.1 °F 76% 30.37 in 10.0 mi West 4.6 mph - N/A   Clear
8:51 AM 33.1 °F 28.7 °F 26.1 °F 75% 30.39 in 10.0 mi West 4.6 mph - N/A   Clear
9:51 AM 37.0 °F 31.6 °F 28.0 °F 70% 30.41 in 10.0 mi West 6.9 mph - N/A   Clear
10:51 AM 39.9 °F 36.7 °F 28.9 °F 65% 30.41 in 10.0 mi West 4.6 mph - N/A   Clear
11:51 AM 44.1 °F 40.8 °F 30.9 °F 60% 30.40 in 10.0 mi WSW 5.8 mph - N/A   Partly Cloudy
12:51 PM 48.0 °F - 32.0 °F 54% 30.39 in 10.0 mi West 9.2 mph - N/A   Scattered Clouds
1:51 PM 46.9 °F - 28.9 °F 50% 30.37 in 10.0 mi NW 11.5 mph - N/A   Scattered Clouds
2:51 PM 46.9 °F - 28.0 °F 48% 30.35 in 10.0 mi WNW 6.9 mph - N/A   Mostly Cloudy
3:51 PM 46.9 °F - 26.1 °F 44% 30.35 in 10.0 mi WNW 12.7 mph - N/A   Mostly Cloudy
4:51 PM 46.9 °F - 25.0 °F 42% 30.34 in 10.0 mi WSW 8.1 mph - N/A   Mostly Cloudy
5:51 PM 46.9 °F - 25.0 °F 42% 30.34 in 10.0 mi WSW 10.4 mph - N/A   Mostly Cloudy
6:51 PM 46.0 °F 42.5 °F 24.1 °F 42% 30.33 in 10.0 mi SW 6.9 mph - N/A   Mostly Cloudy
7:51 PM 44.1 °F 40.8 °F 25.0 °F 47% 30.32 in 10.0 mi SW 5.8 mph - N/A   Partly Cloudy
8:51 PM 42.1 °F 37.1 °F 26.1 °F 53% 30.32 in 10.0 mi SW 8.1 mph - N/A   Partly Cloudy
9:51 PM 41.0 °F 36.4 °F 26.1 °F 55% 30.31 in 10.0 mi SW 6.9 mph - N/A   Clear
10:51 PM 39.9 °F 35.1 °F 25.0 °F 55% 30.30 in 10.0 mi SSW 6.9 mph - N/A   Clear
11:51 PM 37.0 °F 32.4 °F 26.1 °F 65% 30.28 in 10.0 mi SSW 5.8 mph - N/A   Clear